Regional Weather Roundup
Issued by NWS

Home | Current Version | Previous Version | Text Only | Print | Product List | Glossary On
Versions: 1 2 3 4 5 6 7 8 9 10 11 12 13 14 15 16 17 18 19 20 21 22 23 24 25 26 27 28 29 30 31 32 33 34 35 36 37 38 39 40 41 42 43 44 45 46 47 48 49 50
000
ASUS43 KDTX 171201
RWRMI
MICHIGAN HOURLY REGIONAL WEATHER ROUNDUP
NATIONAL WEATHER SERVICE DETROIT/PONTIAC MI
800 AM EDT WED SEP 17 2014

NOTE: "FAIR" INDICATES FEW OR NO CLOUDS BELOW 12,000 FEET WITH NO
SIGNIFICANT WEATHER AND/OR OBSTRUCTION TO VISIBILITY.

MIZ047>049-052>055-059>063-066>070-074>076-081>083-171300-
SOUTHEAST LOWER MICHIGAN

CITY           SKY/WX    TMP DP  RH WIND       PRES   REMARKS
ADRIAN         CLEAR     40  38  93 CALM      30.08S
6HR MIN TEMP:  38; 6HR MAX TEMP:  46;

ALMA           CLEAR     40  39  98 CALM      30.06R
ANN ARBOR      CLEAR     33  31  92 W3        30.06S FOG
BAD AXE        CLEAR     41  41 100 S3        30.04S
6HR MIN TEMP:  38; 6HR MAX TEMP:  44;

CARO           CLEAR     40  39  99 CALM      30.05R
DETROIT CITY   CLEAR     50  43  77 CALM      30.07R
6HR MIN TEMP:  48; 6HR MAX TEMP:  54;

DETROIT        PTCLDY    47  42  83 CALM      30.07S
6HR MIN TEMP:  45; 6HR MAX TEMP:  51;

FLINT          CLEAR     42  39  89 CALM      30.07R
6HR MIN TEMP:  39; 6HR MAX TEMP:  47;

GROSSE ILE     CLEAR     46  45  93 CALM      30.05F
HILLSDALE      CLEAR     37  37 100 CALM      30.07R
HOWELL         CLEAR     40  39  97 CALM      30.07R
6HR MIN TEMP:  39; 6HR MAX TEMP:  42;


CITY           SKY/WX    TMP DP  RH WIND       PRES   REMARKS
JACKSON        CLEAR     39  38  96 CALM      30.07R
6HR MIN TEMP:  37; 6HR MAX TEMP:  42;

LAMBERTVILLE   CLEAR     43  41  93 CALM      30.08R FOG
LANSING        CLEAR     42  39  89 SW3       30.08R
6HR MIN TEMP:  40; 6HR MAX TEMP:  44;

LAPEER         FAIR      37  37  99 CALM      30.06R
MASON          CLEAR     38  38  99 CALM      30.07S FOG
MONROE         CLEAR     43  43 100 CALM      30.06S FOG
MT. CLEMENS    PTCLDY    44  41  89 CALM      30.05R
6HR MIN TEMP:  42; 6HR MAX TEMP:  51;

PONTIAC        PTCLDY    44  41  89 CALM      30.06R
6HR MIN TEMP:  42; 6HR MAX TEMP:  49;

PORT HOPE        N/A     48  43  82 SW8       30.00S
6HR MIN TEMP:  48; 6HR MAX TEMP:  49;

PORT HURON     CLEAR     39  39 100 CALM      30.06R
TRI CITIES     CLEAR     44  41  89 SW6       30.05R
6HR MIN TEMP:  43; 6HR MAX TEMP:  47;

TROY           CLEAR     46  43  87 CALM      30.07S
SAGINAW HB     CLEAR     43  43 100 SW7       30.05R
$$
MIZ043>046-050>051-056>058-064>065-071>073-077>080-171300-
SOUTHWEST LOWER MICHIGAN

CITY           SKY/WX    TMP DP  RH WIND       PRES   REMARKS
BATTLE CREEK   CLEAR     41  39  93 CALM      30.07R
6HR MIN TEMP:  40; 6HR MAX TEMP:  43;

BENTON HARBOR  CLEAR     39  39 100 CALM      30.07R
6HR MIN TEMP:  37; 6HR MAX TEMP:  41;

BIG RAPIDS     CLEAR     38  38 100 CALM      30.03S
6HR MIN TEMP:  37; 6HR MAX TEMP:  40;

COLDWATER      CLEAR     39  38  98 CALM      30.08R
6HR MIN TEMP:  38; 6HR MAX TEMP:  45;

FREMONT        FAIR      39  39  99 CALM      30.04R FOG
HOLLAND        CLEAR     44  40  85 S3        30.07R
6HR MIN TEMP:  42; 6HR MAX TEMP:  45;

GRAND RAPIDS   PTCLDY    42  39  89 SE5       30.06R
6HR MIN TEMP:  40; 6HR MAX TEMP:  44;

IONIA          FAIR      40  40  97 S3        30.06R
KALAMAZOO      CLEAR     40  39  97 CALM      30.08R
6HR MIN TEMP:  38; 6HR MAX TEMP:  43;

LUDINGTON      CLEAR     39  38  97 CALM      30.03R
6HR MIN TEMP:  39; 6HR MAX TEMP:  42;

MARSHALL       FOG       35  35 100 CALM      30.07R VSB 1/4
MOUNT PLEASANT CLEAR     40  39  97 CALM      30.03S FOG
6HR MIN TEMP:  39; 6HR MAX TEMP:  42;

MUSKEGON       PTCLDY    43  39  86 SE5       30.05R
6HR MIN TEMP:  41; 6HR MAX TEMP:  45;

SOUTH HAVEN    CLEAR     45  44  95 CALM      30.06R
$$
MIZ016>042-171300-
NORTHERN LOWER MICHIGAN

CITY           SKY/WX    TMP DP  RH WIND       PRES   REMARKS
ALPENA         CLOUDY    48  45  89 CALM      29.98R
6HR MIN TEMP:  43; 6HR MAX TEMP:  49;

BEAVER ISLAND  MOCLDY    48  47  99 SW3       29.96R FOG
6HR MIN TEMP:  46; 6HR MAX TEMP:  50;

BELLAIRE       CLOUDY    51  48  89 CALM      29.99S
6HR MIN TEMP:  43; 6HR MAX TEMP:  51;

CADILLAC       FOG       37  37  98 CALM      30.02R VSB 1/2
CHARLEVOIX     CLOUDY    56  53  89 SW8       30.00R
6HR MIN TEMP:  55; 6HR MAX TEMP:  58;

FRANKFORT      CLEAR     46  44  90 CALM      30.00S
GAYLORD        CLOUDY    48  46  93 SW6       29.99R
6HR MIN TEMP:  43; 6HR MAX TEMP:  48;

GRAYLING       PTCLDY    49  48  97 SW6       30.01R
6HR MIN TEMP:  43; 6HR MAX TEMP:  49;

HARBOR SPRINGS CLOUDY    54  50  86 SW3       29.97R
HOUGHTON LAKE  CLEAR     47  45  93 SW6       30.01S
6HR MIN TEMP:  45; 6HR MAX TEMP:  49;

MANISTEE       CLEAR     39  36  87 E5        30.02S
OSCODA         CLEAR     44  43  94 SW6       29.99R
PELLSTON       MOCLDY    46  45  96 CALM      29.96R
6HR MIN TEMP:  44; 6HR MAX TEMP:  54;

ROGERS CITY    CLOUDY    49  48  95 SW3       29.98S
TRAVERSE CITY  PTCLDY    50  46  86 S5        29.99R
6HR MIN TEMP:  50; 6HR MAX TEMP:  52;

$$
MIZ007>008-015-171300-
EASTERN UPPER MICHIGAN

CITY           SKY/WX    TMP DP  RH WIND       PRES   REMARKS
KINROSS        MOCLDY    46  46 100 SE5       29.94F
6HR MIN TEMP:  45; 6HR MAX TEMP:  48;

MACKINAC ISLAN CLOUDY    51  49  93 CALM      29.95S
6HR MIN TEMP:  47; 6HR MAX TEMP:  52;

NEWBERRY       CLOUDY    46  44  95 S3        29.93S
S. S. MARIE    CLOUDY    46  44  93 CALM      29.94F
6HR MIN TEMP:  44; 6HR MAX TEMP:  48;

$$
MIZ004>006-011>014-085-171300-
CENTRAL UPPER MICHIGAN

CITY           SKY/WX    TMP DP  RH WIND       PRES   REMARKS
MANISTIQUE     MOCLDY    48  48  97 SW3       29.94S
ESCANABA       PTCLDY    46  43  87 CALM      29.95F
6HR MIN TEMP:  45; 6HR MAX TEMP:  48;

MENOMINEE      CLEAR     46  41  81 CALM      29.97S
6HR MIN TEMP:  45; 6HR MAX TEMP:  52;

SAWYER-GWINN   PTCLDY    63  41  45 S5        29.93R
$$
MIZ001>003-009>011-084-171300-
WESTERN UPPER MICHIGAN

CITY           SKY/WX    TMP DP  RH WIND       PRES   REMARKS
IRON MOUNTAIN  CLEAR     47  41  80 CALM      29.95S
6HR MIN TEMP:  47; 6HR MAX TEMP:  52;

HOUGHTON       LGT RAIN  52  45  77 W16       29.91R
6HR MIN TEMP:  46; 6HR MAX TEMP:  53; 6HR PCP: TRACE;

COPPER HARBOR    N/A     48  46  93 E7G17     29.93R
6HR MIN TEMP:  46; 6HR MAX TEMP:  51; 6HR PCP:  0.02;

IRONWOOD       MOCLDY    50  43  76 SW7       29.92R
6HR MIN TEMP:  48; 6HR MAX TEMP:  54;

$$

ABBREVIATIONS USED IN REMARKS
   TC - TEMPERATURE IN CELSIUS
  WCI - WIND CHILL INDEX
   HX - HEAT INDEX
  VSB - VISIBILITY



USA.gov is the U.S. government's official web portal to all federal, state and local government web resources and services.